This is the latest recevied weather packets stored in our database for station/object KB7STN. If no packets are shown the sender has not sent any weather packets the latest 10 day(s).
| Time | Temp. | Humidity | Pressure | Rain* | Wind** | Luminosity | Snow |
|---|---|---|---|---|---|---|---|
| 1788421518 | 19.44° C | 19% | 1015.9 hPa | 0 mm | - | - | - |
| 1788421218 | 19.44° C | 19% | 1016 hPa | 0 mm | - | - | - |
| 1788420918 | 18.89° C | 19% | 1015.9 hPa | 0 mm | - | - | - |
| 1788420619 | 18.89° C | 19% | 1015.8 hPa | 0 mm | - | - | - |
| 1788420319 | 18.89° C | 20% | 1015.8 hPa | 0 mm | - | - | - |
| 1788420019 | 18.89° C | 21% | 1015.9 hPa | 0 mm | - | - | - |
| 1788419719 | 18.89° C | 21% | 1015.7 hPa | 0 mm | - | - | - |
| 1788419418 | 18.89° C | 22% | 1015.8 hPa | 0 mm | - | - | - |
| 1788419119 | 18.89° C | 23% | 1015.8 hPa | 0 mm | - | - | - |
| 1788418819 | 18.33° C | 24% | 1015.7 hPa | 0 mm | - | - | - |
| 1788418519 | 18.33° C | 25% | 1015.6 hPa | 0 mm | - | - | - |
| 1788418219 | 18.33° C | 24% | 1015.6 hPa | 0 mm | - | - | - |
| 1788417919 | 18.33° C | 26% | 1015.5 hPa | 0 mm | - | - | - |
| 1788417619 | 18.33° C | 29% | 1015.5 hPa | 0 mm | - | - | - |
| 1788417319 | 18.33° C | 26% | 1015.5 hPa | 0 mm | - | - | - |
| 1788417019 | 18.89° C | 27% | 1015.4 hPa | 0 mm | - | - | - |
| 1788416719 | 18.89° C | 28% | 1015.5 hPa | 0 mm | - | - | - |
| 1788416419 | 18.89° C | 27% | 1015.4 hPa | 0 mm | - | - | - |
| 1788416119 | 18.89° C | 27% | 1015.4 hPa | 0 mm | - | - | - |
| 1788415819 | 18.89° C | 27% | 1015.4 hPa | 0 mm | - | - | - |
| 1788415519 | 18.89° C | 27% | 1015.3 hPa | 0 mm | - | - | - |
| 1788415219 | 18.89° C | 27% | 1015.3 hPa | 0 mm | - | - | - |
| 1788414919 | 18.89° C | 26% | 1015.1 hPa | 0 mm | - | - | - |
| 1788414619 | 18.89° C | 27% | 1015.2 hPa | 0 mm | - | - | - |
| 1788414319 | 19.44° C | 28% | 1015.2 hPa | 0 mm | - | - | - |
* Rain latest hour (hover to see other rain measurements)
** Current wind speed in m/s (hover to see current wind gust speed)